Weather History for KEVV - July, 2013

Change the Weather History Date:

Tuesday, July 2, 2013

  Actual Average Record
Temperature  
Mean Temperature 71 °F 78 °F  
Max Temperature 79 °F 89 °F 103 °F (2012)
Min Temperature 63 °F 67 °F 52 °F (1948)
Degree Days  
Heating Degree Days 0 0  
Month to date heating degree days 0 0  
Since 1 June heating degree days 1 6  
Since 1 July heating degree days 0 0  
Cooling Degree Days 6 13  
Month to date cooling degree days 11 26  
Year to date cooling degree days 478 459  
Since 1 June cooling degree days 307 324  
Growing Degree Days 22 (Base 50)    
Moisture  
Dew Point 64 °F    
Average Humidity 77    
Maximum Humidity 93    
Minimum Humidity 60    
Precipitation  
Precipitation 0.02 in 0.13 in 2.90 in (1992)
Month to date precipitation 0.26 0.26  
Year to date precipitation 30.36 24.28  
Snow  
Snow 0.00 in 0.00 in - ()
Month to date snowfall 0.0 0.0  
Since 1 June snowfall 0.0 0.0  
Since 1 July snowfall 0.0 0.0  
Snow Depth -    
Sea Level Pressure  
Sea Level Pressure 29.94 in    
Wind  
Wind Speed 6 mph (SSE)    
Max Wind Speed 15 mph    
Max Gust Speed 20 mph    
Visibility 8 miles    
Events Rain    
T = Trace of Precipitation, MM = Missing Value Source: NWS Daily Summary

Daily Weather History Graph

Daily Weather History Graph

Search for Another Location

Airport or City:

Trip Planner

Search our weather history database for the weather conditions in past years. The results will help you decide how hot, cold, wet, or windy it might be!

Date:

Astronomy

Jul. 02, 2013 Rise Set
Actual Time 5:31 AM CDT 8:16 PM CDT
Civil Twilight 5:00 AM CDT 8:47 PM CDT
Nautical Twilight 4:21 AM CDT 9:26 PM CDT
Astronomical Twilight 3:36 AM CDT 10:11 PM CDT
Moon 1:31 AM CDT (7/2) 3:32 PM CDT (7/2)
Length of Visible Light 15h 47m
Length of Day
14h 44m
Waning Crescent, 26% of the Moon is Illuminated
Jul 2
Waning Crescent
Jul 8
New
Jul 15
First Quarter
Jul 22
Full
Jul 29
Last Quarter

Hourly Weather History & Observations

Time (CDT) Temp. Dew Point Humidity Pressure Visibility Wind Dir Wind Speed Gust Speed Precip Events Conditions
12:54 AM 66.0 °F 64.9 °F 96% 29.90 in 5.0 mi ENE 3.5 mph - N/A   Overcast
1:01 AM 66.2 °F 64.4 °F 94% 29.90 in 6.0 mi ENE 3.5 mph - N/A   Overcast
1:14 AM 66.2 °F 64.4 °F 94% 29.90 in 8.0 mi NE 3.5 mph - N/A   Overcast
1:54 AM 66.9 °F 64.9 °F 93% 29.88 in 6.0 mi NE 4.6 mph - N/A   Overcast
2:54 AM 66.9 °F 64.9 °F 93% 29.88 in 8.0 mi NE 5.8 mph - N/A   Overcast
3:54 AM 66.9 °F 64.9 °F 93% 29.88 in 6.0 mi NE 6.9 mph - 0.01 in Rain Light Rain
4:54 AM 66.9 °F 64.9 °F 93% 29.89 in 6.0 mi ENE 4.6 mph - 0.00 in   Overcast
5:54 AM 66.9 °F 64.9 °F 93% 29.91 in 5.0 mi ENE 5.8 mph - N/A   Overcast
6:54 AM 66.9 °F 64.9 °F 93% 29.92 in 5.0 mi East 5.8 mph - N/A   Overcast
7:54 AM 66.9 °F 64.9 °F 93% 29.94 in 4.0 mi East 5.8 mph - 0.00 in Rain Light Rain
9:54 AM 69.1 °F 66.0 °F 90% 29.94 in 5.0 mi SE 5.8 mph - 0.01 in   Overcast
10:54 AM 71.1 °F 66.0 °F 84% 29.95 in 5.0 mi South 5.8 mph - 0.00 in   Haze
11:08 AM 71.6 °F 66.2 °F 83% 29.96 in 9.0 mi SSW 5.8 mph - N/A   Overcast
11:19 AM 73.4 °F 66.2 °F 78% 29.96 in 10.0 mi SSW 8.1 mph - N/A   Mostly Cloudy
11:32 AM 73.4 °F 64.4 °F 73% 29.95 in 10.0 mi South 6.9 mph - N/A   Mostly Cloudy
11:41 AM 73.4 °F 64.4 °F 73% 29.96 in 10.0 mi SSW 4.6 mph - N/A   Mostly Cloudy
11:49 AM 71.6 °F 64.4 °F 78% 29.96 in 10.0 mi SSW 4.6 mph - N/A   Mostly Cloudy
11:54 AM 73.0 °F 64.0 °F 73% 29.95 in 10.0 mi SSW 4.6 mph - N/A   Mostly Cloudy
12:15 PM 73.4 °F 64.4 °F 73% 29.96 in 10.0 mi South 6.9 mph - N/A   Overcast
12:54 PM 75.9 °F 66.0 °F 71% 29.95 in 10.0 mi South 5.8 mph - N/A   Mostly Cloudy
1:33 PM 75.2 °F 66.2 °F 73% 29.95 in 10.0 mi SSE 5.8 mph - N/A   Mostly Cloudy
1:41 PM 75.2 °F 64.4 °F 69% 29.95 in 10.0 mi South 6.9 mph - N/A   Scattered Clouds
1:54 PM 75.9 °F 64.9 °F 69% 29.94 in 10.0 mi SSE 9.2 mph - N/A   Mostly Cloudy
2:54 PM 77.0 °F 63.0 °F 62% 29.93 in 10.0 mi SSE 8.1 mph - N/A   Scattered Clouds
3:54 PM 75.9 °F 64.9 °F 69% 29.93 in 10.0 mi South 6.9 mph 16.1 mph N/A   Overcast
4:54 PM 78.1 °F 64.9 °F 64% 29.94 in 10.0 mi SW 10.4 mph - N/A   Mostly Cloudy
5:54 PM 77.0 °F 64.9 °F 66% 29.95 in 10.0 mi WSW 9.2 mph - N/A   Scattered Clouds
6:54 PM 73.9 °F 64.0 °F 71% 29.96 in 10.0 mi WSW 6.9 mph - N/A   Mostly Cloudy
7:54 PM 72.0 °F 63.0 °F 73% 29.98 in 10.0 mi WSW 6.9 mph - N/A   Scattered Clouds
8:54 PM 69.1 °F 61.0 °F 75% 29.99 in 10.0 mi SW 6.9 mph - N/A   Partly Cloudy
9:54 PM 66.9 °F 61.0 °F 81% 30.01 in 10.0 mi WSW 3.5 mph - N/A   Partly Cloudy
10:54 PM 64.9 °F 61.0 °F 87% 30.02 in 10.0 mi Calm Calm - N/A   Clear
11:54 PM 64.0 °F 60.1 °F 87% 30.02 in 10.0 mi SSW 5.8 mph - N/A   Clear